LEMUR-2-CHRISTINAHOLT (43882 NORAD) Tracking and Keplerian Element Data

This shows tracking and keplerian element data for the satellite.

Feedback or suggestion? Click here.




ElementValue
Catalog43882
NameLEMUR-2-CHRISTINAHOLT
Epoch Orbit295
Epoch Day15.94054188
Epoch Year2019
RAAN286.1159
Inclination97.7277
Eccentricity0.0011781
Argument of Perigee172.3122
Mean Anonmoly187.8282
Mean Motion14.96315022
Decay Rate6.32E-06
L11 43882U 18111G 19015.94054188 .00000632 00000-0 60971-4 0 9990
L22 43882 97.7277 286.1159 0011781 172.3122 187.8282 14.96315022 2959

Live tracking and technical data element details for LEMUR-2-CHRISTINAHOLT (NORAD 43882). LEMUR-2-CHRISTINAHOLT can be tracked NOW for your location showing map with azimuth and elevation plus other details from your city location.

Track the satellite on the map from your city or location and see movement details for azimuth, elevation, latitude, longitude, range, height, and movement on the map or in text.







IsCatalogInMostPopularTable: catalog: 43882, numindb: 16
Update: records affected: 1



GetName: 43882 LEMUR-2-CHRISTINAHOLT

Hit Count: updated at: Thu, 17 Jan 2019 15:52:44 GMT